Time,TemperatureF,DewpointF,PressureIn,WindDirection,WindDirectionDegrees,WindSpeedMPH,WindSpeedGustMPH,Humidity,HourlyPrecipIn,Conditions,Clouds,dailyrainin,SoftwareType,DateUTC
2013-02-18 00:02:00,58.5,32.9,29.25,SSW,205,4.0,11.0,38,0.00,,,0.00,meteohub,2013-02-18 06:02:00,
2013-02-18 00:07:00,58.3,32.7,29.25,West,267,5.0,11.0,38,0.00,,,0.00,meteohub,2013-02-18 06:07:00,
2013-02-18 00:12:00,58.3,32.7,29.25,West,273,6.0,11.0,38,0.00,,,0.00,meteohub,2013-02-18 06:12:00,
2013-02-18 00:17:00,58.1,33.3,29.25,South,186,4.0,11.0,39,0.00,,,0.00,meteohub,2013-02-18 06:17:00,
2013-02-18 00:22:00,58.1,33.3,29.25,SW,221,5.0,10.0,39,0.00,,,0.00,meteohub,2013-02-18 06:22:00,
2013-02-18 00:27:00,57.9,33.1,29.25,SE,136,4.0,10.0,39,0.00,,,0.00,meteohub,2013-02-18 06:27:00,
2013-02-18 00:32:00,57.7,32.9,29.25,WSW,239,4.0,10.0,39,0.00,,,0.00,meteohub,2013-02-18 06:32:00,
2013-02-18 00:37:00,57.7,33.6,29.25,SE,139,3.0,8.0,40,0.00,,,0.00,meteohub,2013-02-18 06:37:00,
2013-02-18 00:42:00,57.7,33.6,29.25,SSW,207,6.0,8.0,40,0.00,,,0.00,meteohub,2013-02-18 06:42:00,
2013-02-18 00:47:00,57.6,33.4,29.25,South,179,3.0,8.0,40,0.00,,,0.00,meteohub,2013-02-18 06:47:00,
2013-02-18 00:52:00,57.6,34.0,29.25,SW,228,4.0,8.0,41,0.00,,,0.00,meteohub,2013-02-18 06:52:00,
2013-02-18 00:57:00,57.6,34.0,29.25,SW,232,0.0,10.0,41,0.00,,,0.00,meteohub,2013-02-18 06:57:00,
2013-02-18 01:02:00,57.4,33.8,29.25,SW,232,6.0,10.0,41,0.00,,,0.00,meteohub,2013-02-18 07:02:00,
2013-02-18 01:07:00,57.4,34.5,29.25,SSW,198,4.0,10.0,42,0.00,,,0.00,meteohub,2013-02-18 07:07:00,
2013-02-18 01:12:00,57.2,34.3,29.25,SSW,204,4.0,7.0,42,0.00,,,0.00,meteohub,2013-02-18 07:12:00,
2013-02-18 01:17:00,57.2,34.3,29.25,SW,225,5.0,7.0,42,0.00,,,0.00,meteohub,2013-02-18 07:17:00,
2013-02-18 01:22:00,57.2,34.9,29.25,SW,217,3.0,7.0,43,0.00,,,0.00,meteohub,2013-02-18 07:22:00,
2013-02-18 01:27:00,57.2,34.9,29.25,SW,227,3.0,8.0,43,0.00,,,0.00,meteohub,2013-02-18 07:27:00,
2013-02-18 01:32:00,57.2,34.9,29.25,WSW,239,5.0,8.0,43,0.00,,,0.00,meteohub,2013-02-18 07:32:00,
2013-02-18 01:37:00,57.2,35.4,29.25,WSW,238,3.0,8.0,44,0.00,,,0.00,meteohub,2013-02-18 07:37:00,
2013-02-18 01:42:00,57.2,34.9,29.25,South,178,2.0,6.0,43,0.00,,,0.00,meteohub,2013-02-18 07:42:00,
2013-02-18 01:47:00,57.2,35.4,29.22,SSW,209,5.0,7.0,44,0.00,,,0.00,meteohub,2013-02-18 07:47:00,
2013-02-18 01:52:00,57.2,35.4,29.22,SW,220,5.0,8.0,44,0.00,,,0.00,meteohub,2013-02-18 07:52:00,
2013-02-18 01:57:00,57.2,35.4,29.22,South,172,2.0,8.0,44,0.00,,,0.00,meteohub,2013-02-18 07:57:00,
2013-02-18 02:02:00,57.2,36.0,29.22,South,179,3.0,8.0,45,0.00,,,0.00,meteohub,2013-02-18 08:02:00,
2013-02-18 02:07:00,57.2,36.0,29.22,WSW,245,4.0,8.0,45,0.00,,,0.00,meteohub,2013-02-18 08:07:00,
2013-02-18 02:12:00,57.2,36.0,29.22,South,171,4.0,8.0,45,0.00,,,0.00,meteohub,2013-02-18 08:12:00,
2013-02-18 02:17:00,57.2,36.0,29.22,WSW,252,3.0,6.0,45,0.00,,,0.00,meteohub,2013-02-18 08:17:00,
2013-02-18 02:22:00,57.2,36.0,29.22,SSW,208,4.0,8.0,45,0.00,,,0.00,meteohub,2013-02-18 08:22:00,
2013-02-18 02:27:00,57.2,36.7,29.22,SSW,194,5.0,8.0,46,0.00,,,0.00,meteohub,2013-02-18 08:27:00,
2013-02-18 02:32:00,57.2,36.7,29.22,SSW,206,4.0,6.0,46,0.00,,,0.00,meteohub,2013-02-18 08:32:00,
2013-02-18 02:37:00,57.2,36.7,29.22,SSW,210,5.0,6.0,46,0.00,,,0.00,meteohub,2013-02-18 08:37:00,
2013-02-18 02:42:00,57.2,36.7,29.22,SW,220,3.0,6.0,46,0.00,,,0.00,meteohub,2013-02-18 08:42:00,
2013-02-18 02:47:00,57.4,36.7,29.19,SSE,158,3.0,8.0,46,0.00,,,0.00,meteohub,2013-02-18 08:47:00,
2013-02-18 02:52:00,57.4,36.7,29.19,SSW,207,0.0,8.0,46,0.00,,,0.00,meteohub,2013-02-18 08:52:00,
2013-02-18 02:57:00,57.4,37.4,29.19,SSE,162,4.0,6.0,47,0.00,,,0.00,meteohub,2013-02-18 08:57:00,
2013-02-18 03:02:00,57.4,37.4,29.19,SSE,167,3.0,6.0,47,0.00,,,0.00,meteohub,2013-02-18 09:02:00,
2013-02-18 03:07:00,57.4,37.4,29.19,SSW,211,4.0,6.0,47,0.00,,,0.00,meteohub,2013-02-18 09:07:00,
2013-02-18 03:12:00,57.4,37.4,29.19,SW,222,3.0,8.0,47,0.00,,,0.00,meteohub,2013-02-18 09:12:00,
2013-02-18 03:17:00,57.4,37.4,29.19,SW,234,6.0,8.0,47,0.00,,,0.00,meteohub,2013-02-18 09:17:00,
2013-02-18 03:22:00,57.4,37.4,29.19,SW,216,5.0,8.0,47,0.00,,,0.00,meteohub,2013-02-18 09:22:00,
2013-02-18 03:27:00,57.4,37.9,29.19,ESE,107,3.0,8.0,48,0.00,,,0.00,meteohub,2013-02-18 09:27:00,
2013-02-18 03:32:00,57.4,37.9,29.19,SW,219,2.0,8.0,48,0.00,,,0.00,meteohub,2013-02-18 09:32:00,
2013-02-18 03:37:00,57.6,37.9,29.19,SW,222,3.0,7.0,48,0.00,,,0.00,meteohub,2013-02-18 09:37:00,
2013-02-18 03:42:00,57.6,37.9,29.19,SW,222,3.0,7.0,48,0.00,,,0.00,meteohub,2013-02-18 09:42:00,
2013-02-18 03:47:00,57.6,37.9,29.19,SSW,207,3.0,8.0,48,0.00,,,0.00,meteohub,2013-02-18 09:47:00,
2013-02-18 03:52:00,57.6,38.5,29.19,SW,225,5.0,8.0,49,0.00,,,0.00,meteohub,2013-02-18 09:52:00,
2013-02-18 03:57:00,57.7,38.7,29.19,SSE,153,5.0,8.0,49,0.00,,,0.00,meteohub,2013-02-18 09:57:00,
2013-02-18 04:02:00,57.7,38.7,29.19,South,172,3.0,7.0,49,0.00,,,0.00,meteohub,2013-02-18 10:02:00,
2013-02-18 04:07:00,57.9,38.8,29.19,SW,230,3.0,7.0,49,0.00,,,0.00,meteohub,2013-02-18 10:07:00,
2013-02-18 04:12:00,57.9,39.4,29.19,West,263,4.0,8.0,50,0.00,,,0.00,meteohub,2013-02-18 10:12:00,
2013-02-18 04:17:00,58.1,39.6,29.16,SSW,205,3.0,8.0,50,0.00,,,0.00,meteohub,2013-02-18 10:17:00,
2013-02-18 04:22:00,58.1,39.6,29.16,SE,145,3.0,8.0,50,0.00,,,0.00,meteohub,2013-02-18 10:22:00,
2013-02-18 04:27:00,58.3,39.7,29.16,SW,225,4.0,8.0,50,0.00,,,0.00,meteohub,2013-02-18 10:27:00,
2013-02-18 04:32:00,58.5,39.9,29.16,SW,236,4.0,8.0,50,0.00,,,0.00,meteohub,2013-02-18 10:32:00,
2013-02-18 04:37:00,58.6,40.6,29.16,WSW,237,3.0,8.0,51,0.00,,,0.00,meteohub,2013-02-18 10:37:00,
2013-02-18 04:42:00,59.0,40.8,29.16,WSW,248,11.0,11.0,51,0.00,,,0.00,meteohub,2013-02-18 10:42:00,
2013-02-18 04:47:00,59.2,40.6,29.16,SSW,202,5.0,11.0,50,0.00,,,0.00,meteohub,2013-02-18 10:47:00,
2013-02-18 04:52:00,59.4,40.6,29.16,SSW,192,6.0,12.0,50,0.00,,,0.00,meteohub,2013-02-18 10:52:00,
2013-02-18 04:58:00,59.7,41.0,29.16,WNW,288,5.0,12.0,50,0.00,,,0.00,meteohub,2013-02-18 10:58:00,
2013-02-18 05:03:00,59.7,41.0,29.16,WSW,248,3.0,10.0,50,0.00,,,0.00,meteohub,2013-02-18 11:03:00,
2013-02-18 05:08:00,59.9,40.6,29.16,SSW,206,3.0,10.0,49,0.00,,,0.00,meteohub,2013-02-18 11:08:00,
2013-02-18 05:13:00,60.1,40.8,29.16,SSW,212,4.0,9.0,49,0.00,,,0.00,meteohub,2013-02-18 11:13:00,
2013-02-18 05:18:00,60.1,40.8,29.16,SSW,195,3.0,10.0,49,0.00,,,0.00,meteohub,2013-02-18 11:18:00,
2013-02-18 05:23:00,60.1,40.8,29.16,WSW,240,3.0,10.0,49,0.00,,,0.00,meteohub,2013-02-18 11:23:00,
2013-02-18 05:29:00,60.1,41.4,29.16,SE,146,3.0,10.0,50,0.00,,,0.00,meteohub,2013-02-18 11:29:00,
2013-02-18 05:34:00,60.1,41.4,29.16,SW,234,4.0,10.0,50,0.00,,,0.00,meteohub,2013-02-18 11:34:00,
2013-02-18 05:39:00,60.1,41.4,29.16,SSE,153,3.0,10.0,50,0.00,,,0.00,meteohub,2013-02-18 11:39:00,
2013-02-18 05:44:00,60.1,41.4,29.13,WSW,252,3.0,10.0,50,0.00,,,0.00,meteohub,2013-02-18 11:44:00,
2013-02-18 05:49:00,60.1,41.4,29.13,SW,218,10.0,10.0,50,0.00,,,0.00,meteohub,2013-02-18 11:49:00,
2013-02-18 05:54:00,60.1,41.4,29.13,SW,227,3.0,9.0,50,0.00,,,0.00,meteohub,2013-02-18 11:54:00,
2013-02-18 06:00:00,59.9,41.7,29.13,SSW,195,4.0,10.0,51,0.00,,,0.00,meteohub,2013-02-18 12:00:00,
2013-02-18 06:05:00,59.9,41.7,29.13,WSW,247,3.0,8.0,51,0.00,,,0.00,meteohub,2013-02-18 12:05:00,
2013-02-18 06:10:00,59.9,41.7,29.13,ESE,115,0.0,8.0,51,0.00,,,0.00,meteohub,2013-02-18 12:10:00,
2013-02-18 06:15:00,59.9,41.7,29.13,SW,236,4.0,10.0,51,0.00,,,0.00,meteohub,2013-02-18 12:15:00,
2013-02-18 06:20:00,59.7,41.5,29.13,WNW,283,4.0,10.0,51,0.00,,,0.00,meteohub,2013-02-18 12:20:00,
2013-02-18 06:25:00,59.7,41.5,29.13,SW,225,3.0,8.0,51,0.00,,,0.00,meteohub,2013-02-18 12:25:00,
2013-02-18 06:31:00,59.7,42.1,29.13,SSW,208,3.0,8.0,52,0.00,,,0.00,meteohub,2013-02-18 12:31:00,
2013-02-18 06:36:00,59.5,41.9,29.13,SSE,165,3.0,8.0,52,0.00,,,0.00,meteohub,2013-02-18 12:36:00,
2013-02-18 06:41:00,59.4,42.3,29.13,SW,232,6.0,8.0,53,0.00,,,0.00,meteohub,2013-02-18 12:41:00,
2013-02-18 06:46:00,59.4,42.3,29.13,WSW,237,4.0,8.0,53,0.00,,,0.00,meteohub,2013-02-18 12:46:00,
2013-02-18 06:51:00,59.4,42.3,29.13,SW,223,0.0,8.0,53,0.00,,,0.00,meteohub,2013-02-18 12:51:00,
2013-02-18 06:56:00,59.4,42.3,29.13,SW,229,0.0,8.0,53,0.00,,,0.00,meteohub,2013-02-18 12:56:00,
2013-02-18 07:01:00,59.4,42.8,29.13,SW,227,3.0,8.0,54,0.00,,,0.00,meteohub,2013-02-18 13:01:00,
2013-02-18 07:06:00,59.2,42.6,29.13,SSW,213,2.0,8.0,54,0.00,,,0.00,meteohub,2013-02-18 13:06:00,
2013-02-18 07:11:00,59.2,42.6,29.13,SW,232,3.0,8.0,54,0.00,,,0.00,meteohub,2013-02-18 13:11:00,
2013-02-18 07:16:00,59.2,43.0,29.16,WSW,246,5.0,12.0,55,0.00,,,0.00,meteohub,2013-02-18 13:16:00,
2013-02-18 07:21:00,59.2,43.0,29.16,WSW,240,3.0,12.0,55,0.00,,,0.00,meteohub,2013-02-18 13:21:00,
2013-02-18 07:27:00,59.2,43.5,29.16,SSW,207,3.0,12.0,56,0.00,,,0.00,meteohub,2013-02-18 13:27:00,
2013-02-18 07:32:00,59.2,43.5,29.16,SSW,200,6.0,8.0,56,0.00,,,0.00,meteohub,2013-02-18 13:32:00,
2013-02-18 07:37:00,59.2,43.5,29.16,SW,229,6.0,8.0,56,0.00,,,0.00,meteohub,2013-02-18 13:37:00,
2013-02-18 07:42:00,59.2,43.5,29.13,SSW,210,9.0,9.0,56,0.00,,,0.00,meteohub,2013-02-18 13:42:00,
2013-02-18 07:47:00,59.4,43.7,29.13,SW,218,5.0,10.0,56,0.00,,,0.00,meteohub,2013-02-18 13:47:00,
2013-02-18 07:53:00,59.4,43.7,29.13,SW,221,3.0,10.0,56,0.00,,,0.00,meteohub,2013-02-18 13:53:00,
2013-02-18 07:58:00,59.5,43.9,29.16,WSW,237,3.0,10.0,56,0.00,,,0.00,meteohub,2013-02-18 13:58:00,
2013-02-18 08:03:00,59.7,44.1,29.16,WSW,237,9.0,9.0,56,0.00,,,0.00,meteohub,2013-02-18 14:03:00,
2013-02-18 08:08:00,59.9,44.2,29.16,SSW,197,3.0,10.0,56,0.00,,,0.00,meteohub,2013-02-18 14:08:00,
2013-02-18 08:13:00,60.1,44.4,29.13,SW,234,0.0,10.0,56,0.00,,,0.00,meteohub,2013-02-18 14:13:00,
2013-02-18 08:18:00,60.3,44.1,29.13,SW,214,3.0,10.0,55,0.00,,,0.00,meteohub,2013-02-18 14:18:00,
2013-02-18 08:24:00,60.6,44.4,29.13,SW,234,4.0,9.0,55,0.00,,,0.00,meteohub,2013-02-18 14:24:00,
2013-02-18 08:29:00,61.0,43.7,29.13,South,181,5.0,9.0,53,0.00,,,0.00,meteohub,2013-02-18 14:29:00,
2013-02-18 08:34:00,61.3,43.5,29.13,SW,223,4.0,11.0,52,0.00,,,0.00,meteohub,2013-02-18 14:34:00,
2013-02-18 08:39:00,61.7,43.9,29.13,SSW,213,5.0,11.0,52,0.00,,,0.00,meteohub,2013-02-18 14:39:00,
2013-02-18 08:44:00,62.1,43.7,29.16,SW,229,3.0,11.0,51,0.00,,,0.00,meteohub,2013-02-18 14:44:00,
2013-02-18 08:49:00,62.4,44.1,29.16,South,185,5.0,9.0,51,0.00,,,0.00,meteohub,2013-02-18 14:49:00,
2013-02-18 08:54:00,62.8,43.3,29.16,SSW,203,4.0,8.0,49,0.00,,,0.00,meteohub,2013-02-18 14:54:00,
2013-02-18 08:59:00,63.1,43.2,29.16,WNW,292,4.0,8.0,48,0.00,,,0.00,meteohub,2013-02-18 14:59:00,
2013-02-18 09:04:00,63.7,43.7,29.16,SSE,161,5.0,8.0,48,0.00,,,0.00,meteohub,2013-02-18 15:04:00,
2013-02-18 09:09:00,64.0,43.3,29.16,SW,236,4.0,10.0,47,0.00,,,0.00,meteohub,2013-02-18 15:09:00,
2013-02-18 09:14:00,64.4,43.2,29.16,WSW,243,3.0,10.0,46,0.00,,,0.00,meteohub,2013-02-18 15:14:00,
2013-02-18 09:19:00,64.8,43.5,29.16,West,266,4.0,9.0,46,0.00,,,0.00,meteohub,2013-02-18 15:19:00,
2013-02-18 09:24:00,65.1,43.3,29.16,West,265,4.0,9.0,45,0.00,,,0.00,meteohub,2013-02-18 15:24:00,
2013-02-18 09:30:00,65.3,43.3,29.16,WNW,288,4.0,8.0,45,0.00,,,0.00,meteohub,2013-02-18 15:30:00,
2013-02-18 09:35:00,65.5,43.0,29.16,WNW,292,5.0,11.0,44,0.00,,,0.00,meteohub,2013-02-18 15:35:00,
2013-02-18 09:40:00,65.7,43.2,29.16,West,275,5.0,11.0,44,0.00,,,0.00,meteohub,2013-02-18 15:40:00,
2013-02-18 09:45:00,65.8,43.3,29.16,WNW,294,3.0,12.0,44,0.00,,,0.00,meteohub,2013-02-18 15:45:00,
2013-02-18 09:50:00,65.8,43.3,29.16,SSW,210,3.0,12.0,44,0.00,,,0.00,meteohub,2013-02-18 15:50:00,
2013-02-18 09:55:00,66.0,43.5,29.16,West,259,4.0,8.0,44,0.00,,,0.00,meteohub,2013-02-18 15:55:00,
2013-02-18 10:00:00,66.4,42.6,29.16,WSW,240,4.0,8.0,42,0.00,,,0.00,meteohub,2013-02-18 16:00:00,
2013-02-18 10:05:00,66.7,43.0,29.16,SW,231,3.0,8.0,42,0.00,,,0.00,meteohub,2013-02-18 16:05:00,
2013-02-18 10:10:00,66.9,41.9,29.16,WSW,241,5.0,8.0,40,0.00,,,0.00,meteohub,2013-02-18 16:10:00,
2013-02-18 10:15:00,67.5,41.7,29.16,WNW,297,6.0,9.0,39,0.00,,,0.00,meteohub,2013-02-18 16:15:00,
2013-02-18 10:20:00,67.8,41.4,29.16,SW,236,7.0,10.0,38,0.00,,,0.00,meteohub,2013-02-18 16:20:00,
2013-02-18 10:25:00,68.2,41.0,29.16,SSW,198,6.0,10.0,37,0.00,,,0.00,meteohub,2013-02-18 16:25:00,
2013-02-18 10:31:00,68.7,40.6,29.16,WSW,253,4.0,10.0,36,0.00,,,0.00,meteohub,2013-02-18 16:31:00,
2013-02-18 10:36:00,69.3,40.5,29.16,WSW,252,5.0,9.0,35,0.00,,,0.00,meteohub,2013-02-18 16:36:00,
2013-02-18 10:41:00,69.6,40.8,29.16,WSW,242,6.0,11.0,35,0.00,,,0.00,meteohub,2013-02-18 16:41:00,
2013-02-18 10:46:00,70.0,40.3,29.16,WNW,284,7.0,11.0,34,0.00,,,0.00,meteohub,2013-02-18 16:46:00,
2013-02-18 10:51:00,70.0,39.6,29.16,NW,309,5.0,11.0,33,0.00,,,0.00,meteohub,2013-02-18 16:51:00,
2013-02-18 10:57:00,70.2,39.7,29.16,WSW,248,4.0,11.0,33,0.00,,,0.00,meteohub,2013-02-18 16:57:00,
2013-02-18 11:02:00,70.3,39.9,29.16,WSW,248,3.0,11.0,33,0.00,,,0.00,meteohub,2013-02-18 17:02:00,
2013-02-18 11:07:00,70.5,40.1,29.16,WNW,301,3.0,8.0,33,0.00,,,0.00,meteohub,2013-02-18 17:07:00,
2013-02-18 11:12:00,70.9,39.6,29.16,West,276,5.0,8.0,32,0.00,,,0.00,meteohub,2013-02-18 17:12:00,
2013-02-18 11:17:00,71.2,39.9,29.16,NW,321,11.0,11.0,32,0.00,,,0.00,meteohub,2013-02-18 17:17:00,
2013-02-18 11:22:00,71.4,40.1,29.16,West,280,4.0,11.0,32,0.00,,,0.00,meteohub,2013-02-18 17:22:00,
2013-02-18 11:27:00,71.6,38.5,29.16,SW,231,3.0,11.0,30,0.00,,,0.00,meteohub,2013-02-18 17:27:00,
2013-02-18 11:33:00,71.6,37.6,29.16,SW,226,4.0,11.0,29,0.00,,,0.00,meteohub,2013-02-18 17:33:00,
2013-02-18 11:38:00,72.0,36.1,29.16,WSW,244,3.0,9.0,27,0.00,,,0.00,meteohub,2013-02-18 17:38:00,
2013-02-18 11:43:00,72.7,36.9,29.16,West,281,6.0,9.0,27,0.00,,,0.00,meteohub,2013-02-18 17:43:00,
2013-02-18 11:48:00,73.2,36.3,29.16,West,260,3.0,8.0,26,0.00,,,0.00,meteohub,2013-02-18 17:48:00,
2013-02-18 11:53:00,73.2,34.3,29.16,West,263,4.0,8.0,24,0.00,,,0.00,meteohub,2013-02-18 17:53:00,
2013-02-18 11:59:00,73.0,34.2,29.16,West,268,4.0,8.0,24,0.00,,,0.00,meteohub,2013-02-18 17:59:00,
2013-02-18 12:04:00,73.4,33.3,29.16,WNW,302,7.0,11.0,23,0.00,,,0.00,meteohub,2013-02-18 18:04:00,
2013-02-18 12:09:00,73.6,33.4,29.16,WNW,292,3.0,11.0,23,0.00,,,0.00,meteohub,2013-02-18 18:09:00,
2013-02-18 12:15:00,74.1,34.0,29.16,West,259,5.0,11.0,23,0.00,,,0.00,meteohub,2013-02-18 18:15:00,
2013-02-18 12:20:00,74.3,33.1,29.16,West,259,3.0,10.0,22,0.00,,,0.00,meteohub,2013-02-18 18:20:00,
2013-02-18 12:25:00,74.3,33.1,29.16,WSW,245,3.0,10.0,22,0.00,,,0.00,meteohub,2013-02-18 18:25:00,
2013-02-18 12:30:00,74.7,33.3,29.16,WSW,251,3.0,8.0,22,0.00,,,0.00,meteohub,2013-02-18 18:30:00,
2013-02-18 12:36:00,74.7,32.2,29.16,NW,325,8.0,8.0,21,0.00,,,0.00,meteohub,2013-02-18 18:36:00,
2013-02-18 12:41:00,74.7,33.3,29.16,WSW,254,7.0,8.0,22,0.00,,,0.00,meteohub,2013-02-18 18:41:00,
2013-02-18 12:47:00,74.8,33.4,29.13,WSW,247,4.0,8.0,22,0.00,,,0.00,meteohub,2013-02-18 18:47:00,
2013-02-18 12:52:00,75.4,32.7,29.13,WSW,254,3.0,8.0,21,0.00,,,0.00,meteohub,2013-02-18 18:52:00,
2013-02-18 12:57:00,75.4,32.7,29.13,NW,321,4.0,8.0,21,0.00,,,0.00,meteohub,2013-02-18 18:57:00,
2013-02-18 13:02:00,75.7,33.1,29.16,WSW,252,4.0,8.0,21,0.00,,,0.00,meteohub,2013-02-18 19:02:00,
2013-02-18 13:07:00,75.7,33.1,29.16,NNW,327,3.0,8.0,21,0.00,,,0.00,meteohub,2013-02-18 19:07:00,
2013-02-18 13:12:00,75.9,32.0,29.16,WSW,246,4.0,8.0,20,0.00,,,0.00,meteohub,2013-02-18 19:12:00,
2013-02-18 13:17:00,75.9,32.0,29.16,SW,229,4.0,8.0,20,0.00,,,0.00,meteohub,2013-02-18 19:17:00,
2013-02-18 13:23:00,75.9,32.0,29.16,WNW,295,4.0,8.0,20,0.00,,,0.00,meteohub,2013-02-18 19:23:00,
2013-02-18 13:28:00,76.3,32.2,29.16,West,271,0.0,9.0,20,0.00,,,0.00,meteohub,2013-02-18 19:28:00,
2013-02-18 13:33:00,76.5,32.4,29.16,WSW,240,3.0,9.0,20,0.00,,,0.00,meteohub,2013-02-18 19:33:00,
2013-02-18 13:38:00,76.3,29.7,29.16,West,261,3.0,9.0,18,0.00,,,0.00,meteohub,2013-02-18 19:38:00,
2013-02-18 13:44:00,74.8,28.4,29.16,NW,311,5.0,5.0,18,0.00,,,0.00,meteohub,2013-02-18 19:44:00,
2013-02-18 13:49:00,73.8,27.7,29.16,NE,47,3.0,5.0,18,0.00,,,0.00,meteohub,2013-02-18 19:49:00,
2013-02-18 13:54:00,73.2,28.4,29.16,WNW,301,4.0,8.0,19,0.00,,,0.00,meteohub,2013-02-18 19:54:00,
2013-02-18 13:59:00,72.3,27.7,29.19,East,90,4.0,8.0,19,0.00,,,0.00,meteohub,2013-02-18 19:59:00,
2013-02-18 14:04:00,71.8,27.3,29.19,NW,320,3.0,8.0,19,0.00,,,0.00,meteohub,2013-02-18 20:04:00,
2013-02-18 14:09:00,71.1,24.1,29.19,NNE,14,5.0,8.0,17,0.00,,,0.00,meteohub,2013-02-18 20:09:00,
2013-02-18 14:15:00,70.3,23.5,29.19,NW,312,3.0,7.0,17,0.00,,,0.00,meteohub,2013-02-18 20:15:00,
2013-02-18 14:20:00,69.8,23.0,29.19,NW,308,4.0,10.0,17,0.00,,,0.00,meteohub,2013-02-18 20:20:00,
2013-02-18 14:25:00,69.4,22.6,29.19,NW,319,4.0,10.0,17,0.00,,,0.00,meteohub,2013-02-18 20:25:00,
2013-02-18 14:30:00,69.1,22.5,29.19,ENE,61,4.0,10.0,17,0.00,,,0.00,meteohub,2013-02-18 20:30:00,
2013-02-18 14:35:00,68.7,22.1,29.19,NW,313,3.0,10.0,17,0.00,,,0.00,meteohub,2013-02-18 20:35:00,
2013-02-18 14:40:00,68.5,21.9,29.19,NNW,332,4.0,6.0,17,0.00,,,0.00,meteohub,2013-02-18 20:40:00,
2013-02-18 14:46:00,68.4,21.9,29.22,NNW,338,5.0,6.0,17,0.00,,,0.00,meteohub,2013-02-18 20:46:00,
2013-02-18 14:51:00,67.8,21.4,29.22,ENE,76,4.0,6.0,17,0.00,,,0.00,meteohub,2013-02-18 20:51:00,
2013-02-18 14:56:00,67.5,21.2,29.22,NW,319,3.0,7.0,17,0.00,,,0.00,meteohub,2013-02-18 20:56:00,
2013-02-18 15:01:00,67.3,21.0,29.22,NW,313,9.0,9.0,17,0.00,,,0.00,meteohub,2013-02-18 21:01:00,
2013-02-18 15:06:00,67.1,20.8,29.22,NNW,328,3.0,9.0,17,0.00,,,0.00,meteohub,2013-02-18 21:06:00,
2013-02-18 15:11:00,66.9,20.7,29.22,NW,305,6.0,9.0,17,0.00,,,0.00,meteohub,2013-02-18 21:11:00,
2013-02-18 15:16:00,66.7,20.5,29.22,East,93,4.0,9.0,17,0.00,,,0.00,meteohub,2013-02-18 21:16:00,
2013-02-18 15:21:00,66.6,20.3,29.22,NW,304,4.0,10.0,17,0.00,,,0.00,meteohub,2013-02-18 21:21:00,
2013-02-18 15:26:00,66.6,24.3,29.22,NNW,327,3.0,10.0,20,0.00,,,0.00,meteohub,2013-02-18 21:26:00,
2013-02-18 15:32:00,66.4,24.1,29.22,NW,308,6.0,11.0,20,0.00,,,0.00,meteohub,2013-02-18 21:32:00,
2013-02-18 15:37:00,65.8,21.2,29.22,WNW,297,5.0,11.0,18,0.00,,,0.00,meteohub,2013-02-18 21:37:00,
2013-02-18 15:42:00,65.8,23.7,29.25,WNW,297,5.0,11.0,20,0.00,,,0.00,meteohub,2013-02-18 21:42:00,
2013-02-18 15:47:00,65.7,21.0,29.25,WNW,293,4.0,11.0,18,0.00,,,0.00,meteohub,2013-02-18 21:47:00,
2013-02-18 15:52:00,65.7,23.5,29.25,North,7,4.0,9.0,20,0.00,,,0.00,meteohub,2013-02-18 21:52:00,
2013-02-18 15:57:00,65.5,23.4,29.25,NW,309,5.0,8.0,20,0.00,,,0.00,meteohub,2013-02-18 21:57:00,
2013-02-18 16:02:00,65.5,23.4,29.25,NW,319,4.0,8.0,20,0.00,,,0.00,meteohub,2013-02-18 22:02:00,
2013-02-18 16:07:00,65.3,23.2,29.25,WNW,301,4.0,8.0,20,0.00,,,0.00,meteohub,2013-02-18 22:07:00,
2013-02-18 16:13:00,65.3,23.2,29.25,North,350,4.0,6.0,20,0.00,,,0.00,meteohub,2013-02-18 22:13:00,
2013-02-18 16:18:00,65.1,23.0,29.25,NW,315,4.0,8.0,20,0.00,,,0.00,meteohub,2013-02-18 22:18:00,
2013-02-18 16:23:00,65.1,23.0,29.25,NW,308,4.0,8.0,20,0.00,,,0.00,meteohub,2013-02-18 22:23:00,
2013-02-18 16:28:00,64.9,22.8,29.28,NW,318,4.0,8.0,20,0.00,,,0.00,meteohub,2013-02-18 22:28:00,
2013-02-18 16:33:00,64.9,22.8,29.28,NNW,328,4.0,8.0,20,0.00,,,0.00,meteohub,2013-02-18 22:33:00,
2013-02-18 16:39:00,64.8,22.8,29.28,NNW,343,3.0,8.0,20,0.00,,,0.00,meteohub,2013-02-18 22:39:00,
2013-02-18 16:44:00,64.8,22.8,29.28,WNW,296,3.0,6.0,20,0.00,,,0.00,meteohub,2013-02-18 22:44:00,
2013-02-18 16:49:00,64.6,22.6,29.28,NW,311,4.0,8.0,20,0.00,,,0.00,meteohub,2013-02-18 22:49:00,
2013-02-18 16:54:00,64.6,22.6,29.28,NW,317,5.0,8.0,20,0.00,,,0.00,meteohub,2013-02-18 22:54:00,
2013-02-18 16:59:00,64.4,22.5,29.28,NW,325,2.0,8.0,20,0.00,,,0.00,meteohub,2013-02-18 22:59:00,
2013-02-18 17:04:00,64.2,23.5,29.28,NW,308,0.0,8.0,21,0.00,,,0.00,meteohub,2013-02-18 23:04:00,
2013-02-18 17:09:00,64.0,23.4,29.28,NNW,327,3.0,8.0,21,0.00,,,0.00,meteohub,2013-02-18 23:09:00,
2013-02-18 17:14:00,63.9,23.2,29.28,NNW,337,0.0,8.0,21,0.00,,,0.00,meteohub,2013-02-18 23:14:00,
2013-02-18 17:19:00,63.7,23.0,29.28,WSW,252,0.0,6.0,21,0.00,,,0.00,meteohub,2013-02-18 23:19:00,
2013-02-18 17:25:00,63.7,23.0,29.28,NW,314,0.0,6.0,21,0.00,,,0.00,meteohub,2013-02-18 23:25:00,
2013-02-18 17:30:00,63.5,22.8,29.31,NW,316,2.0,6.0,21,0.00,,,0.00,meteohub,2013-02-18 23:30:00,
2013-02-18 17:35:00,63.3,22.6,29.31,NW,320,3.0,6.0,21,0.00,,,0.00,meteohub,2013-02-18 23:35:00,
2013-02-18 17:40:00,63.1,22.6,29.31,North,11,4.0,6.0,21,0.00,,,0.00,meteohub,2013-02-18 23:40:00,
2013-02-18 17:45:00,63.0,22.5,29.31,West,267,4.0,6.0,21,0.00,,,0.00,meteohub,2013-02-18 23:45:00,
2013-02-18 17:50:00,62.6,22.1,29.31,NNW,331,0.0,8.0,21,0.00,,,0.00,meteohub,2013-02-18 23:50:00,
2013-02-18 17:56:00,62.2,21.7,29.31,North,2,4.0,8.0,21,0.00,,,0.00,meteohub,2013-02-18 23:56:00,
2013-02-18 18:01:00,61.9,21.6,29.34,NW,313,4.0,8.0,21,0.00,,,0.00,meteohub,2013-02-19 00:01:00,
2013-02-18 18:06:00,61.7,21.4,29.34,NW,316,3.0,6.0,21,0.00,,,0.00,meteohub,2013-02-19 00:06:00,
2013-02-18 18:11:00,61.5,21.2,29.34,NW,322,3.0,5.0,21,0.00,,,0.00,meteohub,2013-02-19 00:11:00,
2013-02-18 18:16:00,61.2,20.8,29.34,North,0,3.0,5.0,21,0.00,,,0.00,meteohub,2013-02-19 00:16:00,
2013-02-18 18:21:00,61.0,20.8,29.34,NW,319,4.0,5.0,21,0.00,,,0.00,meteohub,2013-02-19 00:21:00,
2013-02-18 18:27:00,60.8,20.7,29.34,NNW,348,3.0,5.0,21,0.00,,,0.00,meteohub,2013-02-19 00:27:00,
2013-02-18 18:32:00,60.6,21.6,29.34,North,0,2.0,5.0,22,0.00,,,0.00,meteohub,2013-02-19 00:32:00,
2013-02-18 18:37:00,60.4,21.4,29.34,NW,308,4.0,5.0,22,0.00,,,0.00,meteohub,2013-02-19 00:37:00,
2013-02-18 18:42:00,60.3,21.2,29.36,NW,322,0.0,7.0,22,0.00,,,0.00,meteohub,2013-02-19 00:42:00,
2013-02-18 18:47:00,59.9,21.0,29.36,North,2,3.0,7.0,22,0.00,,,0.00,meteohub,2013-02-19 00:47:00,
2013-02-18 18:52:00,59.7,20.8,29.36,North,353,0.0,7.0,22,0.00,,,0.00,meteohub,2013-02-19 00:52:00,
2013-02-18 18:57:00,59.5,20.7,29.36,North,357,0.0,6.0,22,0.00,,,0.00,meteohub,2013-02-19 00:57:00,
2013-02-18 19:02:00,59.4,20.5,29.36,NNW,331,4.0,5.0,22,0.00,,,0.00,meteohub,2013-02-19 01:02:00,
2013-02-18 19:07:00,59.2,20.3,29.36,North,0,3.0,5.0,22,0.00,,,0.00,meteohub,2013-02-19 01:07:00,
2013-02-18 19:12:00,58.8,20.1,29.36,NNW,341,4.0,5.0,22,0.00,,,0.00,meteohub,2013-02-19 01:12:00,
2013-02-18 19:18:00,58.6,21.9,29.36,NW,326,0.0,5.0,24,0.00,,,0.00,meteohub,2013-02-19 01:18:00,
2013-02-18 19:23:00,58.5,21.7,29.36,NW,320,3.0,5.0,24,0.00,,,0.00,meteohub,2013-02-19 01:23:00,
2013-02-18 19:28:00,58.5,21.7,29.39,NE,36,4.0,4.0,24,0.00,,,0.00,meteohub,2013-02-19 01:28:00,
2013-02-18 19:33:00,58.3,21.6,29.39,NW,315,0.0,8.0,24,0.00,,,0.00,meteohub,2013-02-19 01:33:00,
2013-02-18 19:38:00,58.1,21.6,29.39,NNW,343,0.0,8.0,24,0.00,,,0.00,meteohub,2013-02-19 01:38:00,
2013-02-18 19:44:00,57.7,21.2,29.39,NW,315,0.0,8.0,24,0.00,,,0.00,meteohub,2013-02-19 01:44:00,
2013-02-18 19:49:00,57.6,21.0,29.39,NW,321,0.0,4.0,24,0.00,,,0.00,meteohub,2013-02-19 01:49:00,
2013-02-18 19:54:00,57.6,21.0,29.39,NW,304,0.0,4.0,24,0.00,,,0.00,meteohub,2013-02-19 01:54:00,
2013-02-18 19:59:00,57.4,20.8,29.39,North,353,0.0,4.0,24,0.00,,,0.00,meteohub,2013-02-19 01:59:00,
2013-02-18 20:05:00,57.4,20.8,29.39,North,353,5.0,6.0,24,0.00,,,0.00,meteohub,2013-02-19 02:05:00,
2013-02-18 20:10:00,57.2,20.7,29.39,East,79,2.0,6.0,24,0.00,,,0.00,meteohub,2013-02-19 02:10:00,
2013-02-18 20:15:00,57.0,21.6,29.42,North,353,0.0,5.0,25,0.00,,,0.00,meteohub,2013-02-19 02:15:00,
2013-02-18 20:20:00,57.0,21.6,29.42,North,353,0.0,4.0,25,0.00,,,0.00,meteohub,2013-02-19 02:20:00,
2013-02-18 20:25:00,56.8,21.4,29.42,NNW,333,0.0,4.0,25,0.00,,,0.00,meteohub,2013-02-19 02:25:00,
2013-02-18 20:31:00,56.7,21.2,29.42,NNW,348,0.0,3.0,25,0.00,,,0.00,meteohub,2013-02-19 02:31:00,
2013-02-18 20:36:00,56.5,21.0,29.42,NW,312,0.0,3.0,25,0.00,,,0.00,meteohub,2013-02-19 02:36:00,
2013-02-18 20:41:00,56.3,20.8,29.42,NW,312,0.0,3.0,25,0.00,,,0.00,meteohub,2013-02-19 02:41:00,
2013-02-18 20:47:00,56.1,20.8,29.42,NW,324,0.0,0.0,25,0.00,,,0.00,meteohub,2013-02-19 02:47:00,
2013-02-18 20:52:00,55.9,20.7,29.42,NNE,21,0.0,3.0,25,0.00,,,0.00,meteohub,2013-02-19 02:52:00,
2013-02-18 20:57:00,55.6,20.3,29.42,NW,313,0.0,3.0,25,0.00,,,0.00,meteohub,2013-02-19 02:57:00,
2013-02-18 21:02:00,55.4,20.1,29.42,NW,313,0.0,4.0,25,0.00,,,0.00,meteohub,2013-02-19 03:02:00,
2013-02-18 21:07:00,55.2,19.9,29.42,NW,314,0.0,4.0,25,0.00,,,0.00,meteohub,2013-02-19 03:07:00,
2013-02-18 21:12:00,55.0,20.8,29.45,NW,314,0.0,4.0,26,0.00,,,0.00,meteohub,2013-02-19 03:12:00,
2013-02-18 21:17:00,54.9,20.7,29.45,North,353,0.0,0.0,26,0.00,,,0.00,meteohub,2013-02-19 03:17:00,
2013-02-18 21:22:00,54.7,20.5,29.45,North,353,0.0,4.0,26,0.00,,,0.00,meteohub,2013-02-19 03:22:00,
2013-02-18 21:28:00,54.5,20.3,29.45,North,353,0.0,4.0,26,0.00,,,0.00,meteohub,2013-02-19 03:28:00,
2013-02-18 21:33:00,54.5,20.3,29.45,NNW,344,0.0,0.0,26,0.00,,,0.00,meteohub,2013-02-19 03:33:00,
2013-02-18 21:38:00,54.3,20.1,29.45,NW,312,0.0,4.0,26,0.00,,,0.00,meteohub,2013-02-19 03:38:00,
2013-02-18 21:43:00,54.1,19.9,29.45,NNW,338,0.0,4.0,26,0.00,,,0.00,meteohub,2013-02-19 03:43:00,
2013-02-18 21:48:00,54.0,19.8,29.45,NNW,344,0.0,4.0,26,0.00,,,0.00,meteohub,2013-02-19 03:48:00,
2013-02-18 21:54:00,53.8,19.8,29.45,North,350,0.0,4.0,26,0.00,,,0.00,meteohub,2013-02-19 03:54:00,
2013-02-18 21:59:00,53.6,19.6,29.48,NNE,15,0.0,4.0,26,0.00,,,0.00,meteohub,2013-02-19 03:59:00,
2013-02-18 22:04:00,53.4,19.4,29.48,NNE,15,0.0,4.0,26,0.00,,,0.00,meteohub,2013-02-19 04:04:00,
2013-02-18 22:10:00,53.2,19.2,29.48,North,9,0.0,3.0,26,0.00,,,0.00,meteohub,2013-02-19 04:10:00,
2013-02-18 22:15:00,52.9,18.9,29.48,West,281,0.0,4.0,26,0.00,,,0.00,meteohub,2013-02-19 04:15:00,
2013-02-18 22:20:00,52.7,18.7,29.48,NNW,344,0.0,4.0,26,0.00,,,0.00,meteohub,2013-02-19 04:20:00,
2013-02-18 22:25:00,52.7,18.7,29.48,North,7,0.0,3.0,26,0.00,,,0.00,meteohub,2013-02-19 04:25:00,
2013-02-18 22:31:00,52.5,18.7,29.48,NNE,18,0.0,3.0,26,0.00,,,0.00,meteohub,2013-02-19 04:31:00,
2013-02-18 22:36:00,52.3,18.5,29.48,ENE,64,0.0,3.0,26,0.00,,,0.00,meteohub,2013-02-19 04:36:00,
2013-02-18 22:41:00,52.2,18.3,29.48,NE,56,3.0,5.0,26,0.00,,,0.00,meteohub,2013-02-19 04:41:00,
2013-02-18 22:46:00,52.2,18.3,29.48,NNE,21,0.0,6.0,26,0.00,,,0.00,meteohub,2013-02-19 04:46:00,
2013-02-18 22:52:00,52.0,18.1,29.48,NNE,22,2.0,6.0,26,0.00,,,0.00,meteohub,2013-02-19 04:52:00,
2013-02-18 22:57:00,51.8,18.0,29.51,North,10,0.0,4.0,26,0.00,,,0.00,meteohub,2013-02-19 04:57:00,
2013-02-18 23:00:00,51.6,17.8,29.51,NNE,26,0.0,4.0,26,0.00,,,0.00,meteohub,2013-02-19 05:00:00,
2013-02-18 23:03:00,51.6,17.8,29.51,NE,37,4.0,4.0,26,0.00,,,0.00,meteohub,2013-02-19 05:03:00,
2013-02-18 23:04:00,51.6,17.8,29.51,North,9,0.0,4.0,26,0.00,,,0.00,meteohub,2013-02-19 05:04:00,
2013-02-18 23:10:00,51.4,17.6,29.51,North,357,0.0,4.0,26,0.00,,,0.00,meteohub,2013-02-19 05:10:00,
2013-02-18 23:15:00,51.3,17.6,29.51,NNE,28,0.0,4.0,26,0.00,,,0.00,meteohub,2013-02-19 05:15:00,
2013-02-18 23:20:00,50.9,17.2,29.51,North,11,0.0,4.0,26,0.00,,,0.00,meteohub,2013-02-19 05:20:00,
2013-02-18 23:25:00,50.7,17.1,29.51,NNE,25,0.0,4.0,26,0.00,,,0.00,meteohub,2013-02-19 05:25:00,
2013-02-18 23:30:00,50.5,17.8,29.51,NNE,24,0.0,3.0,27,0.00,,,0.00,meteohub,2013-02-19 05:30:00,
2013-02-18 23:35:00,50.2,17.4,29.51,NNE,24,0.0,3.0,27,0.00,,,0.00,meteohub,2013-02-19 05:35:00,
2013-02-18 23:41:00,49.8,17.2,29.51,NNW,345,3.0,3.0,27,0.00,,,0.00,meteohub,2013-02-19 05:41:00,
2013-02-18 23:46:00,49.6,17.1,29.48,NNW,345,0.0,3.0,27,0.00,,,0.00,meteohub,2013-02-19 05:46:00,
2013-02-18 23:51:00,49.3,16.7,29.48,NNW,345,0.0,3.0,27,0.00,,,0.00,meteohub,2013-02-19 05:51:00,
2013-02-18 23:56:00,49.1,16.5,29.48,NNW,345,0.0,3.0,27,0.00,,,0.00,meteohub,2013-02-19 05:56:00,